Location: Bottom School (historical)
(37.9078°N, 89.3593°W)
Time: 04:12:57
(UTC+00:00)

Hubble Space Telescope - Visible Passes

Search period start: 30 November 2022 00:00
Search period end: 10 December 2022 00:00
Orbit: 530 x 534 km, 28.5° (Epoch: 29 November)

Date Brightness Start Highest point End Pass type
(mag) Time Alt. Az. Time Alt. Az. Time Alt. Az.
05 Dec 3.7 12:05:02 10° S 12:06:07 11° SSE 12:07:13 10° SE visible
06 Dec 3.5 11:51:32 10° S 11:53:22 13° SSE 11:55:12 10° SE visible
07 Dec 3.4 11:38:21 10° SSW 11:40:36 14° SSE 11:42:52 10° SE visible
08 Dec 3.2 11:25:18 10° SSW 11:27:51 16° SSE 11:30:25 10° SE visible
09 Dec 3.0 11:13:04 13° SSW 11:15:07 18° S 11:17:53 10° SE visible
